Retour au catalogue

STARLINK-32113

ActifCommunicationsVLEO
NORAD 60282·PAYLOAD·🇺🇸 United States

Lancé Jul 28, 2024 depuis Cape Canaveral Space Force Station

Loading…

Prochains Passages (prochaines 24 heures)

TLE

FraisSource: CelesTrak SupGP

Époque: Sep 15, 2026, 03:25 UTC

1 60282C 24132E   26258.14284722  .00002598  00000+0  76874-4 0  2580
2 60282  53.1564 250.5268 0001622  82.7605 273.7917 15.34342962    17

Suivez STARLINK-32113 en temps réel avec AllMySat

Download on the App Store